Weather History for Chamberlain, SD

Change the Weather History Date:

Sunday, November 17, 2013

  Actual Average Record
Temperature  
Mean Temperature 37 °F -  
Max Temperature 46 °F 41 °F 66 °F (2012)
Min Temperature 27 °F 22 °F 1 °F (2000)
Degree Days  
Heating Degree Days 28    
Moisture  
Dew Point 29 °F    
Average Humidity 78    
Maximum Humidity 92    
Minimum Humidity 56    
Precipitation  
Precipitation 0.00 in - - ()
Sea Level Pressure  
Sea Level Pressure 29.72 in    
Wind  
Wind Speed 7 mph (WNW)    
Max Wind Speed 18 mph    
Max Gust Speed 29 mph    
Averages and records for this station are not official NWS values.
T = Trace of Precipitation, MM = Missing Value Source: NWS Daily Summary

Daily Weather History Graph

Daily Weather History Graph

Search for Another Location

Airport:

Trip Planner

Search our weather history database for the weather conditions in past years. The results will help you decide how hot, cold, wet, or windy it might be!

Date:

Astronomy

Nov. 17, 2013 Rise Set
Actual Time 7:34 AM CST 5:09 PM CST
Civil Twilight 7:03 AM CST 5:40 PM CST
Nautical Twilight 6:28 AM CST 6:15 PM CST
Astronomical Twilight 5:54 AM CST 6:49 PM CST
Moon 5:27 PM CST (11/17) 7:29 AM CST (11/17)
Length of Visible Light 10h 37m
Length of Day
9h 34m
Full, 100% of the Moon is Illuminated
Nov 17
Full
Nov 25
Last Quarter
Dec 2
New
Dec 9
First Quarter
Dec 17
Full

Hourly Weather History & Observations

Time (CST) Temp. Windchill Dew Point Humidity Pressure Visibility Wind Dir Wind Speed Gust Speed Precip Events Conditions
12:52 AM 32.0 °F 26.4 °F 27.0 °F 82% 29.41 in - NNW 5.8 mph - N/A   Unknown
1:52 AM 30.0 °F 25.2 °F 26.1 °F 85% 29.42 in - West 4.6 mph - N/A   Unknown
2:52 AM 33.1 °F 28.7 °F 28.0 °F 82% 29.43 in - WNW 4.6 mph - N/A   Unknown
3:52 AM 30.9 °F 26.2 °F 28.0 °F 89% 29.43 in - NW 4.6 mph - N/A   Unknown
4:52 AM 32.0 °F - 28.9 °F 88% 29.44 in - Calm Calm - N/A   Unknown
5:52 AM 30.9 °F 25.2 °F 28.0 °F 89% 29.47 in - West 5.8 mph - N/A   Unknown
6:52 AM 30.0 °F 26.5 °F 27.0 °F 88% 29.49 in - WNW 3.5 mph - N/A   Unknown
7:52 AM 30.0 °F 24.1 °F 28.0 °F 92% 29.53 in - WNW 5.8 mph - N/A   Unknown
8:52 AM 33.1 °F 26.1 °F 30.0 °F 89% 29.57 in - NNW 8.1 mph - N/A   Unknown
9:52 AM 37.0 °F 32.4 °F 32.0 °F 82% 29.62 in - NW 5.8 mph - N/A   Unknown
10:52 AM 39.9 °F 33.9 °F 33.1 °F 77% 29.67 in - NW 9.2 mph - N/A   Unknown
11:52 AM 46.9 °F - 33.1 °F 59% 29.69 in - NW 11.5 mph - N/A   Unknown
12:52 PM 46.0 °F 39.3 °F 33.1 °F 61% 29.73 in - WNW 16.1 mph 27.6 mph N/A   Unknown
1:52 PM 46.9 °F - 32.0 °F 56% 29.76 in - NW 15.0 mph 26.5 mph N/A   Unknown
2:52 PM 43.0 °F 34.8 °F 33.1 °F 68% 29.82 in - NW 18.4 mph 28.8 mph N/A   Unknown
3:52 PM 44.1 °F 36.2 °F 32.0 °F 63% 29.87 in - NW 18.4 mph 28.8 mph N/A   Unknown
4:52 PM 44.1 °F 38.1 °F 32.0 °F 63% 29.90 in - NW 11.5 mph 18.4 mph N/A   Unknown
5:52 PM 39.0 °F 33.4 °F 30.0 °F 70% 29.95 in - WNW 8.1 mph - N/A   Unknown
6:52 PM 36.0 °F 30.3 °F 30.0 °F 79% 29.98 in - WNW 6.9 mph - N/A   Unknown
7:52 PM 32.0 °F 24.8 °F 27.0 °F 82% 30.01 in - WNW 8.1 mph - N/A   Unknown
8:52 PM 30.0 °F 25.2 °F 25.0 °F 82% 30.04 in - WNW 4.6 mph - N/A   Unknown
9:52 PM 30.0 °F 26.5 °F 24.1 °F 79% 30.05 in - WNW 3.5 mph - N/A   Unknown
10:52 PM 28.0 °F 21.7 °F 25.0 °F 88% 30.05 in - West 5.8 mph - N/A   Unknown
11:52 PM 27.0 °F 19.5 °F 24.1 °F 89% 30.06 in - West 6.9 mph - N/A   Unknown